Regional Weather Roundup
Issued by NWS

Home | Current Version | Previous Version | Graphics & Text | Print | Product List | Glossary On
Versions: 1 2 3 4 5 6 7 8 9 10 11 12 13 14 15 16 17 18 19 20 21 22 23 24 25 26 27 28 29 30 31 32 33 34 35 36 37 38 39 40 41 42 43 44 45 46 47 48 49 50
000
ASUS43 KBIS 012210
RWRND

NORTH DAKOTA REGIONAL WEATHER ROUNDUP
NATIONAL WEATHER SERVICE BISMARCK ND
500 PM CDT SAT AUG 01 2015

NOTE: "FAIR" INDICATES FEW OR NO CLOUDS BELOW 12,000 FEET WITH NO
SIGNIFICANT WEATHER AND/OR OBSTRUCTIONS TO VISIBILITY.


NDZ001>003-009>011-017-012300-
NORTHWEST NORTH DAKOTA

CITY           SKY/WX    TMP DP  RH WIND       PRES   REMARKS
WILLISTON      SUNNY     96  43  16 S10       29.74F HX  92
MINOT          SUNNY     90  47  22 SE13      29.77F
MINOT AFB      SUNNY     90  49  23 VRB7      29.76F
$$

NDZ018>021-031>035-040>046-012300-
SOUTHWEST NORTH DAKOTA

CITY           SKY/WX    TMP DP  RH WIND       PRES   REMARKS
BISMARCK       SUNNY     91  60  35 W8        29.81F HX  90
DICKINSON      SUNNY     93  38  14 VRB5      29.83F
GARRISON         N/A     84  59  42 S6        29.81F
HETTINGER ARPT SUNNY     95  37  13 W14G21    29.89F HX  90
$$

NDZ004>008-012>016-024-026-027-054-012300-
NORTHEAST NORTH DAKOTA

CITY           SKY/WX    TMP DP  RH WIND       PRES   REMARKS
GRAND FORKS    MOSUNNY   85  60  42 SW6       29.76F
GRND FRKS AFB  SUNNY     85  61  44 SW5       29.77F
DEVILS LAKE    SUNNY     88  52  29 SW6       29.77F
$$

NDZ022-023-025-028>030-036>039-047>053-012300-
SOUTHEAST NORTH DAKOTA

CITY           SKY/WX    TMP DP  RH WIND       PRES   REMARKS
FARGO          SUNNY     88  58  36 S9        29.77F
JAMESTOWN      SUNNY     85  65  51 SE6       29.79F
$$




USA.gov is the U.S. government's official web portal to all federal, state and local government web resources and services.